Regional Weather Roundup
Issued by NWS

Home | Current Version | Previous Version | Graphics & Text | Print | Product List | Glossary On
Versions: 1 2 3 4 5 6 7 8 9 10 11 12 13 14 15 16 17 18 19 20 21 22 23 24 25 26 27 28 29 30 31 32 33 34 35 36 37 38 39 40 41 42 43 44 45 46 47 48 49 50
000
ASUS45 KTFX 311119
RWRMT
MONTANA HOURLY WEATHER ROUNDUP
NATIONAL WEATHER SERVICE GREAT FALLS MT
519 AM MDT THU JUL 31 2014

NOTE: "FAIR" INDICATES FEW OR NO CLOUDS BELOW 12000 FEET WITH NO
SIGNIFICANT WEATHER AND/OR OBSTRUCTIONS TO VISIBILITY.

* THESE STATIONS ARE NOT UNDER NWS QUALITY CONTROL. THEY DO NOT
   REPORT WEATHER SUCH AS PRECIPITATION OR FOG.

MTZ001>007-043-311200-
WEST OF THE DIVIDE
CITY           SKY/WX    TMP DP  RH WIND       PRES   REMARKS
KALISPELL      CLEAR     55  48  77 N6        30.12R
MISSOULA       PTCLDY    61  45  56 CALM      30.16S
BUTTE          PTCLDY    48  43  83 SE5       30.31R
MULLAN PASS    CLEAR     70  36  29 W3        30.30S
* ESSEX        N/A       54  46  74 E2         N/A
* LINCOLN      N/A       46  45  96 W1         N/A
* LOOKOUT PASS N/A       62  42  48 S2         N/A
* POLSON       N/A       63  42  46 E1         N/A
* RONAN APT    CLEAR     54  48  80 N/A        N/A
* SEELEY LAKE  N/A       47  41  80 N3         N/A
* THOMP F APT  CLEAR     50  40  69 N5         N/A
* YAAK HILL    N/A       61  47  60 E1         N/A
$$

MTZ008-052>055-311200-
SOUTHWEST MONTANA
CITY           SKY/WX    TMP DP  RH WIND       PRES   REMARKS
BOZEMAN        CLEAR     48  45  89 SE7       30.24R
DILLON         PTCLDY    54  43  67 S10       30.28F
W YELLOWSTONE  CLEAR     39  37  93 CALM      30.39R
* THREE FORKS  PTCLDY    52  52 100 N/A        N/A
* BOULDER HILL N/A       58  38  47 SW8        N/A
* MONIDA PASS  N/A       46  43  89 W2         N/A
* RAYNOLDS PAS N/A       47  27  46 SE3        N/A
* WHITEHALL    N/A       55  46  72 NW4G10     N/A
* WISE RIVER   N/A       47  42  83 SE3        N/A
$$

MTZ009>010-012-014-046-048-049-054-311200-
EAST SLOPES AND CENTRAL MONTANA
CITY           SKY/WX    TMP DP  RH WIND       PRES   REMARKS
CUT BANK       CLEAR     55  43  64 W10       30.14R
GREAT FALLS    CLEAR     61  43  52 SW10      30.13S
HELENA         CLEAR     63  46  54 CALM      30.18S
MALMSTROM AFB  CLEAR     63  46  54 W5        30.14R
* CONRAD       CLEAR     54  48  80 N/A        N/A
* DEARBORN     N/A       55  49  80 S3         N/A
* EAST GLACIER N/A       63  40  43 NW4        N/A
* MONARCH      N/A       54  38  55 E2G14      N/A
* PENDROY      N/A       62  45  54 NW7        N/A
* ROGERS PASS  N/A       61  41  48 NW3G8      N/A
* SAINT MARY   N/A       46  42  86 SE3        N/A
* SWEET GRASS  N/A       65  41  42 W9         N/A
* WHITE SULPH  N/A       54  39  57 NE7        N/A
$$

MTZ011-013-016-021-035-040-045-047-050-051-311200-
NORTH CENTRAL MONTANA
CITY           SKY/WX    TMP DP  RH WIND       PRES   REMARKS
HAVRE          CLEAR     57  45  64 W9        30.05R
LEWISTOWN      PTCLDY    55  41  59 SE5       30.16S
* FORT BENTON  CLEAR     63  43  48 CALM      30.10R
* CHESTER      N/A       58  42  55 NE1        N/A
* DENTON       N/A       59  44  58 NW3G11     N/A
* GEYSER       N/A       58  45  62 SW9        N/A
* JUDITH GAP   N/A       56  41  57 N/A        N/A
* LOMA         N/A       68  43  40 W6         N/A
$$

MTZ017>020-022>027-061-062-311200-
NORTHEAST MONTANA
CITY           SKY/WX    TMP DP  RH WIND       PRES   REMARKS
GLASGOW        CLEAR     66  48  52 SE20      30.06F
GLENDIVE       PTCLDY    61  50  67 N6        30.17R
JORDAN         PTCLDY    68  41  38 SW6       30.05F
SIDNEY         MOCLDY    61  55  81 SW12      30.09F
WOLF POINT     PTCLDY    70  48  46 S7G17     30.07F
* BEAVER HILL  N/A       62  52  70 E14        N/A
* CIRCLE       N/A       65  49  56 E5G10      N/A
* LINDSAY DVD  N/A       59  50  72 E7         N/A
$$

MTZ028>042-056>058-311200-
SOUTHCENTRAL AND SOUTHEAST MONTANA
CITY           SKY/WX    TMP DP  RH WIND       PRES   REMARKS
BAKER          CLEAR     57  52  83 E7        30.18R
BILLINGS       PTCLDY    63  43  48 SW8       30.13F
LIVINGSTON     CLEAR     55  39  55 NW14      30.21S
MILES CITY     CLEAR     63  46  54 SE8       30.09S
* LAUREL APT   PTCLDY    55  39  55 N/A        N/A
* ROUNDUP APT  CLEAR     57  36  46 SW9        N/A
* ALZADA       N/A       51  47  86 E2         N/A
* HYSHAM       N/A       77  39  26 S4G16      N/A
* LAME DEER    N/A       65  38  37 S7         N/A
* REED POINT   N/A       52  42  69 N/A        N/A
* ROSCOE HILL  N/A       63  31  30 S4         N/A
$$

REGIONAL REPORTS...DAKOTAS
CITY           SKY/WX    TMP DP  RH WIND       PRES   REMARKS
WILLISTON      LGT RAIN  64  59  84 S5        30.08F
DICKINSON      CLOUDY    55  54  96 W7        30.11F
CROSBY         N/A       59  59 100 SW8       30.09F
WATFORD CITY   PTCLDY    59  57  93 CALM      30.09R
BISMARCK       MOCLDY    57  55  93 CALM      30.10F
GRAND FORKS    FAIR      57  55  93 W5        30.03S
FARGO          PTCLDY    57  54  90 SW3       30.04S
BUFFALO SD     CLEAR     59  50  72 NE13      30.10R
RAPID CITY     PTCLDY    57  46  67 W7        30.16S
$$

REGIONAL REPORTS...WYOMING/IDAHO/WASHINGTON
CITY           SKY/WX    TMP DP  RH WIND       PRES   REMARKS
GILLETTE       CLEAR     61  43  52 SW5       30.22S
SHERIDAN       PTCLDY    48  41  77 S3        30.18F
YELLOWSTONE LA CLEAR     39  37  93 CALM      30.47S
SALMON         CLEAR     54  46  74 CALM      30.25R
MULLAN PASS    CLEAR     70  36  29 W3        30.30S
SAND POINT     CLEAR     55  50  83 CALM      30.05S
SPOKANE        FAIR      72  39  30 S9        30.04S
$$

REGIONAL REPORTS...ALBERTA
CITY           SKY/WX    TMP DP  RH WIND       PRES   REMARKS
CALGARY        FAIR      61  45  56 VRB2      30.10S
LETHBRIDGE     CLEAR     55  48  77 SW9       30.08R
EDMONTON       PTCLDY    63  59  87 NE10      30.06F
WATERTON GATE  N/A       57  45  64 S10        N/A
CARDSTON       N/A       52  46  80 SE7        N/A
MILK RIVER     N/A       55  43  64 NW2        N/A
$$

REGIONAL REPORTS...SASKATCHEWAN
CITY           SKY/WX    TMP DP  RH WIND       PRES   REMARKS
SWIFT CURRENT  CLEAR     59  54  84 S10       30.03R
MOOSE JAW      MOCLDY    57  55  93 SE5       30.05R
REGINA         MOCLDY    61  55  81 E10       30.07R
VAL MARIE      N/A       63  50  63 SE12       N/A
ASSINIBOIA     N/A       61  52  72 S7         N/A
CORONACH       N/A       57  54  90 S6         N/A

$$




USA.gov is the U.S. government's official web portal to all federal, state and local government web resources and services.